Theta_e
326 324 323 322 322 323 322 321 322 320 321 320 319 318 318 320 319 319 319 319 318 318 318 318 317 317 318 317 318 317 316 316 315 314 315 316 316 316 315 315 316 315
323 323 322 321 321 321 321 322 321 320 319 320 319 320 320 319 318 318 318 318 317 316 317 316 316 316 316 315 316 315 315 314 312 315 314 314 314 314 315 315 315 315
322 322 321 320 319 320 320 320 320 319 319 318 319 319 318 320 319 319 318 318 317 317 317 316 316 316 315 315 315 314 313 312 311 312 313 313 314 314 315 315 314 314
320 320 319 319 320 319 320 319 319 319 319 318 317 318 318 318 319 318 317 317 316 315 315 315 314 314 314 314 313 312 312 311 311 312 312 313 313 313 313 313 313 312
319 319 319 319 319 319 319 317 317 317 317 317 317 317 317 318 316 315 315 314 313 312 312 312 313 313 314 313 313 312 312 311 311 312 311 311 312 312 312 311 310 309
318 317 317 317 317 317 316 316 316 316 316 315 316 316 316 315 314 312 312 311 310 310 309 310 309 311 312 312 312 311 311 310 310 310 309 310 310 311 311 310 309 308
316 316 316 316 316 317 316 316 316 315 315 315 315 315 315 313 312 310 309 309 308 308 307 307 307 308 309 310 310 310 310 310 310 309 308 308 309 308 309 308 307 307
316 316 315 316 316 316 316 315 315 315 315 314 314 314 313 310 310 310 309 308 307 305 305 305 306 306 307 309 309 309 309 310 309 308 307 307 307 306 306 307 306 305
315 314 315 315 315 315 315 314 314 314 314 313 312 311 311 310 309 308 307 306 305 305 304 304 304 305 306 307 308 308 307 308 308 307 306 305 305 304 304 305 304 303
314 314 315 315 314 314 313 313 314 313 313 312 311 310 309 309 308 306 306 305 304 304 303 303 303 304 305 306 307 308 306 306 306 306 306 305 304 304 304 303 303 302
313 313 313 313 313 313 313 313 313 312 312 310 311 310 309 308 308 306 305 304 304 302 302 302 302 302 303 304 305 307 306 306 305 305 305 304 304 304 305 303 302 302
312 312 312 312 312 312 312 312 312 311 310 310 309 308 308 307 307 306 304 303 302 302 302 301 301 301 300 301 302 305 306 306 305 305 305 304 303 303 303 303 302 302
311 312 312 312 312 312 312 311 311 311 310 309 309 308 307 306 305 305 305 303 302 302 301 301 300 300 299 299 301 302 304 306 305 304 304 304 303 303 303 302 302 302
311 311 311 311 310 310 310 310 310 309 309 309 309 308 307 305 305 304 304 303 303 301 301 301 300 299 297 297 299 300 302 305 304 303 303 303 303 302 302 301 301 301
310 310 310 310 309 309 308 308 308 308 308 308 308 308 308 306 305 304 303 302 302 301 300 300 299 298 296 295 296 297 300 303 304 303 302 302 301 301 301 301 301 301
309 309 308 308 307 307 307 307 307 308 308 307 307 307 307 307 305 304 302 301 301 300 300 299 298 297 296 294 294 295 298 301 305 303 302 301 301 301 300 301 300 300
308 307 307 307 307 307 307 307 307 308 307 307 307 307 307 307 305 303 302 301 300 299 298 299 297 295 293 292 292 293 297 299 304 303 303 302 301 300 299 299 299 300
307 307 306 306 306 306 306 306 307 307 306 307 307 306 307 307 306 304 303 302 300 299 298 297 296 294 291 292 292 292 294 297 304 304 304 302 301 300 300 299 298 299
306 305 305 305 305 305 306 306 305 305 305 305 306 307 307 306 305 305 303 302 300 298 297 296 295 293 291 292 292 292 292 295 303 305 304 303 302 301 300 299 298 299
305 305 304 305 305 305 305 305 304 304 305 305 305 306 306 306 306 305 303 302 300 299 297 296 295 293 291 292 292 291 292 294 305 306 305 302 302 302 300 299 298 298
304 304 304 304 304 305 305 304 304 305 305 305 305 305 305 304 304 304 303 302 301 300 298 297 296 292 291 291 292 292 293 297 306 306 305 303 302 302 301 299 298 298
304 304 304 304 304 304 304 304 304 304 304 304 304 304 304 305 305 305 304 302 301 300 298 296 295 292 291 292 292 291 294 303 306 303 302 303 302 302 301 300 299 297
304 303 303 304 304 303 303 303 304 304 304 305 303 303 303 302 303 302 303 303 302 300 298 296 295 293 291 292 292 291 295 302 304 302 301 301 301 302 301 300 300 298
303 303 303 303 303 303 303 304 304 305 305 305 304 303 302 301 301 300 301 301 301 300 299 297 296 295 292 292 292 292 295 300 302 301 302 301 300 301 301 302 301 302
303 303 302 302 302 302 303 303 304 304 305 306 306 305 304 303 302 300 300 300 300 301 303 299 298 297 293 292 292 292 295 299 300 299 298 299 300 299 300 299 299 301
303 303 302 302 302 303 303 303 304 304 305 305 305 303 303 303 303 302 300 299 300 300 301 301 300 299 296 292 292 292 292 298 298 296 296 296 299 298 298 297 297 297
Wind_Speed
5 5 6 6 6 5 5 4 4 5 4 4 4 4 3 2 4 4 4 4 4 4 4 4 5 5 6 5 5 5 5 6 7 6 7 5 4 4 6 7 7 6
6 5 5 5 4 4 5 4 4 4 5 4 3 3 2 4 3 4 3 3 4 5 5 5 5 6 6 6 6 6 5 7 7 5 6 7 6 6 5 5 5 6
4 5 6 6 5 7 5 4 4 4 4 3 3 3 3 2 3 2 3 3 3 4 4 4 5 5 6 6 6 6 7 7 6 6 6 6 6 6 4 4 5 6
7 6 6 6 7 7 6 5 5 4 3 4 4 3 3 3 2 3 3 4 3 5 5 6 7 6 6 7 6 6 6 6 6 6 5 4 5 7 7 7 7 8
7 6 5 5 5 6 5 6 5 5 5 5 5 4 3 2 3 3 3 4 5 5 5 6 6 6 5 5 5 4 5 4 4 4 4 5 5 6 6 7 9 9
8 8 8 7 7 5 5 5 6 6 6 5 4 4 3 3 4 5 5 5 6 6 6 6 7 7 6 6 5 5 5 5 5 5 6 6 6 6 6 7 8 9
8 7 8 7 6 6 5 6 6 6 5 4 4 3 3 4 5 6 6 6 7 7 8 7 8 8 7 6 6 5 5 5 6 7 8 8 8 9 9 9 9 10
7 7 8 7 7 6 6 6 6 5 5 5 5 4 5 6 6 5 5 7 7 8 9 9 9 9 7 6 6 6 6 6 7 8 8 9 8 10 11 9 10 11
7 8 8 7 7 6 6 7 6 6 6 5 5 5 5 5 6 6 7 8 8 9 9 9 10 8 7 7 6 6 8 7 7 8 9 9 10 10 10 9 10 9
8 8 7 7 7 6 7 6 6 6 6 6 6 5 6 5 6 8 8 8 9 10 10 10 9 8 8 7 7 7 7 8 8 8 9 9 9 9 9 9 9 9
8 8 7 7 7 6 7 6 6 6 5 7 5 5 6 5 6 7 8 9 9 10 10 10 10 9 8 8 8 5 7 7 8 8 8 8 8 9 11 9 10 9
9 8 8 8 7 7 7 6 6 6 6 6 6 7 6 6 7 7 8 9 10 10 10 10 10 9 10 10 10 10 9 7 8 8 8 7 9 10 10 10 10 10
9 8 7 7 6 6 6 6 6 6 6 6 5 6 6 6 7 8 7 9 10 10 10 10 9 9 9 9 9 10 9 7 8 7 8 7 9 9 10 10 10 9
8 8 7 7 6 7 7 7 7 6 6 5 6 6 6 7 8 8 7 8 9 10 10 8 8 9 9 8 8 7 7 7 7 7 8 7 7 9 9 9 8 8
8 7 7 7 8 7 7 7 7 6 6 6 5 5 5 7 8 8 9 9 10 9 10 8 7 7 6 7 7 8 7 7 6 8 7 7 7 7 7 8 8 8
9 8 8 8 8 8 7 7 7 6 6 6 6 6 6 6 7 8 9 9 9 10 8 7 6 5 8 10 7 5 6 6 3 6 6 6 6 5 6 7 8 8
9 9 8 9 8 7 7 8 7 6 6 7 6 6 5 5 6 8 8 9 10 9 9 7 6 7 14 13 14 12 7 6 3 5 4 4 5 5 7 8 7 8
9 9 9 9 8 8 8 8 7 7 7 6 6 6 5 4 6 7 8 8 8 9 9 7 6 12 14 15 15 15 10 6 3 3 2 3 3 5 7 7 8 7
9 10 9 8 8 8 7 7 8 8 7 6 6 5 5 5 6 7 7 8 8 9 8 8 7 12 14 15 15 15 15 9 2 3 3 3 3 6 7 7 7 7
10 9 9 8 8 7 7 8 8 8 6 5 5 5 5 5 5 6 7 7 7 8 7 8 7 11 14 15 14 16 15 11 2 3 3 4 5 7 5 6 7 7
10 9 9 9 8 8 7 8 7 6 6 4 4 5 4 4 4 5 6 7 7 7 7 7 7 13 14 16 15 16 16 12 1 3 3 4 5 6 5 6 5 6
9 9 9 8 8 8 8 7 6 6 6 5 5 5 5 4 4 4 5 7 7 7 6 8 9 14 14 16 17 17 16 9 2 4 4 3 5 5 4 5 4 6
9 9 9 9 9 9 8 7 6 5 5 4 5 5 5 5 4 5 6 6 6 6 6 7 8 12 14 15 16 17 12 8 4 4 4 5 5 4 5 3 3 5
9 9 9 9 8 9 8 6 5 4 4 4 4 5 5 5 5 6 6 6 5 6 6 6 6 9 12 13 15 17 13 8 5 6 7 6 5 4 4 2 2 10
8 8 8 8 8 8 7 6 5 4 3 3 4 4 5 6 6 5 5 5 5 4 6 6 5 6 10 11 13 14 12 7 7 7 7 8 4 5 4 4 4 5
8 8 8 8 8 7 6 6 4 4 4 4 3 3 4 4 4 5 5 5 4 4 4 4 3 3 5 9 10 11 13 8 6 7 7 8 6 5 4 5 4 5
Wind_Direction
88 85 66 64 52 42 56 64 63 80 68 70 66 54 62 40 36 30 29 42 47 33 28 24 25 21 28 20 21 29 21 31 31 11 346 359 16 6 12 11 3 354
80 103 116 102 87 62 62 59 62 75 81 71 79 95 57 61 50 44 20 42 41 42 34 32 32 25 34 23 26 28 15 43 28 1 346 5 7 1 15 8 355 339
88 78 87 104 104 99 92 82 83 79 85 90 79 60 63 57 65 61 50 30 54 37 41 38 37 30 39 36 32 29 26 33 17 357 359 15 0 351 351 359 5 344
122 115 118 126 135 134 132 124 117 107 102 93 86 78 68 61 50 68 51 46 44 46 34 43 35 28 33 43 37 39 34 31 18 5 6 359 3 353 7 5 4 7
114 122 130 109 80 86 95 105 99 92 82 72 66 62 60 58 62 40 58 54 40 45 37 42 42 30 31 44 35 46 44 36 17 1 356 25 12 4 14 12 10 4
131 127 116 114 116 110 109 105 101 92 87 78 78 75 53 61 53 55 45 57 50 43 44 40 42 32 20 30 26 36 41 22 11 12 11 24 7 19 26 18 13 6
114 106 107 105 102 99 96 94 85 90 89 90 93 79 80 62 59 56 55 46 51 47 42 36 40 35 20 24 18 24 39 21 19 22 12 31 13 19 22 18 16 9
102 109 102 99 107 114 112 102 99 93 87 83 76 74 63 62 60 53 56 55 46 47 42 38 35 33 22 25 17 17 32 21 32 20 24 32 19 24 20 17 14 14
119 107 101 104 102 104 107 110 113 113 106 99 87 74 68 69 66 60 52 48 51 46 43 39 34 29 21 19 11 27 32 28 31 22 33 28 30 25 22 17 19 13
114 108 105 102 101 97 97 89 84 84 92 91 92 89 78 67 64 61 56 50 46 45 41 40 34 28 23 14 7 23 40 32 30 32 33 34 29 30 23 24 20 13
111 106 102 102 97 93 91 92 91 91 84 84 76 71 72 77 76 66 63 53 49 43 42 40 38 29 21 10 360 0 46 33 35 33 38 28 29 29 27 26 17 19
114 109 106 103 103 99 98 96 99 93 90 88 90 91 89 81 67 61 60 62 53 48 44 44 41 34 21 10 2 4 13 35 40 41 34 27 36 33 28 22 20 14
113 113 109 106 103 104 104 102 95 94 97 97 102 101 94 81 76 72 66 62 60 51 47 44 41 35 23 8 3 1 360 356 52 39 36 37 35 33 31 22 23 7
114 113 109 105 102 98 94 90 84 81 81 81 81 80 75 77 77 76 70 66 61 57 50 45 39 32 20 7 358 353 353 337 52 38 43 39 38 38 31 19 19 5
112 108 108 108 107 104 101 100 101 100 98 90 79 71 71 78 78 70 69 66 63 59 53 44 39 30 23 359 348 352 349 337 34 48 47 42 38 37 26 22 16 5
119 116 111 108 107 105 102 100 95 92 89 87 81 74 73 71 75 77 72 67 62 59 56 45 31 30 360 9 16 360 332 340 355 56 47 48 47 38 28 25 18 12
121 118 117 110 103 104 105 100 95 87 82 80 78 81 85 89 88 80 71 67 65 59 52 45 29 8 359 5 3 9 2 334 338 59 46 50 54 33 35 27 13 14
123 121 118 120 117 107 106 106 106 102 97 90 91 89 80 75 75 79 79 72 68 63 54 41 27 6 5 4 5 358 360 336 308 63 51 60 68 52 47 34 15 14
125 124 122 117 113 110 106 103 95 96 90 86 84 77 73 70 64 70 77 77 70 63 56 42 29 4 7 9 5 357 350 346 304 72 45 34 59 64 58 39 25 17
124 121 116 112 113 110 106 99 98 95 96 94 93 81 71 67 70 80 81 72 67 65 60 47 33 4 13 12 6 359 347 341 305 64 72 49 49 76 63 54 38 26
120 117 116 115 110 106 101 98 97 99 97 91 82 83 85 82 76 81 83 82 72 63 57 50 32 16 17 14 8 1 350 333 46 28 53 54 51 84 84 68 49 37
124 118 114 115 113 108 105 102 94 92 92 87 85 84 82 80 73 68 78 84 81 69 57 42 29 22 20 19 11 5 352 332 27 51 33 49 53 85 72 75 56 49
123 123 120 116 114 111 109 107 108 106 101 102 97 95 92 85 78 65 59 60 67 78 68 48 36 22 21 19 14 10 2 332 18 27 43 37 39 69 94 67 47 54
122 119 117 117 115 112 109 108 110 113 115 121 120 119 109 103 96 84 71 65 63 73 78 65 47 26 23 19 17 13 7 349 14 21 13 6 30 35 68 113 96 54
117 114 110 102 100 104 110 112 106 102 98 102 116 126 131 130 114 105 101 91 83 71 77 82 63 39 26 20 18 18 13 1 23 18 11 346 3 20 45 15 13 6
106 114 116 119 119 112 110 105 113 126 138 150 142 121 114 112 120 119 124 118 102 88 82 78 80 56 33 29 20 16 16 16 27 21 4 344 336 23 16 12 11 357